Location: Newark
(54.3386°S, 169.8415°W)
Time: 07:24:19
(UTC+00:00)

Transit 2A Rocket - Pass Details

Date: 23 October 2019
Orbit: 594 x 909 km, 66.7° (Epoch: 18 November)

Event Time Altitude Azimuth Distance (km) Brightness Sun altitude
Rises 09:04:34 0° 233° (SW) 3,474 9.6 -19.6°
Reaches altitude 10° 09:07:22 10° 222° (SW) 2,571 8.9 -19.8°
Maximum altitude 09:12:37 30° 162° (SSE) 1,589 7.0 -20.2°
Drops below altitude 10° 09:17:58 10° 102° (ESE) 2,620 7.6 -20.6°
Enters shadow 09:19:48 - 94° (E) 3,205 8.0 -20.7°
Sets 09:20:50 0° 90° (E) 3,552 - -20.8°
